Location: Unspecified
(51.0950°N, 12.9690°E)
Time: 05:31:19
(UTC+00:00)

ATLAS 3B R/B - Pass Details

Date: 31 May 2022
Orbit: 976 x 1218 km, 63.8° (Epoch: 20 June)

Event Time Altitude Azimuth Distance (km) Brightness Sun altitude
Rises 20:42:31 0° 315° (NW) 3,962 7.6 -10.4°
Reaches altitude 10° 20:45:17 10° 309° (NW) 3,034 6.4 -10.6°
Maximum altitude 20:52:04 44° 241° (WSW) 1,586 3.6 -11.2°
Enters shadow 20:58:44 12° 173° (S) 3,025 4.5 -11.7°
